Theta_e
343 343 342 340 340 339 338 336 335 334 333 332 332 333 334 333 332 333 332 331 328 325 324 325 326 328 328 329 331 331 331 330 330 331 332 332 331 330 330 331 330 328 326 327 326 326 326 325 325 326 323 321 321 321 321 322 323 324 325 326 327 328 329 329 331 333 332 332 331 331 332 332 332 334 335 334 335 338 340 340 340 340 340 340 341
342 340 338 338 339 339 337 338 337 336 336 335 335 335 334 333 333 332 332 333 333 331 329 328 326 326 327 327 328 329 328 330 331 331 331 331 332 331 330 331 331 327 326 328 326 325 325 325 325 325 322 321 320 319 319 319 321 322 324 325 325 326 327 329 330 332 333 333 332 332 333 334 334 334 335 336 336 337 338 338 338 339 339 340 340
341 337 336 337 338 337 336 337 337 337 336 336 336 335 334 333 332 331 331 333 334 332 331 331 329 328 327 327 327 328 328 329 331 331 331 331 331 330 330 331 330 326 325 327 327 326 325 325 325 324 322 321 319 317 317 318 320 321 323 324 324 324 325 326 329 331 333 334 333 332 333 336 336 336 336 337 337 338 338 338 338 338 338 339 339
344 341 341 341 339 336 335 336 337 337 336 336 335 335 333 332 332 332 331 331 331 330 331 331 330 329 328 328 329 330 330 330 330 330 330 330 328 329 330 331 331 328 326 327 329 328 325 325 325 324 322 322 319 316 316 318 319 321 323 324 324 324 323 324 326 329 332 333 333 332 332 334 337 338 338 337 338 339 340 341 341 340 339 339 338
347 345 344 343 341 338 336 335 337 337 336 336 335 334 333 332 331 331 330 331 331 331 331 330 329 328 329 329 329 329 330 330 330 329 329 327 325 326 327 329 330 328 326 326 328 329 328 326 326 325 324 322 320 317 317 319 320 321 323 324 324 324 324 323 324 326 329 332 333 333 332 332 335 337 338 338 338 339 341 342 341 341 340 339 338
342 340 342 344 342 339 337 335 336 337 336 336 335 334 333 332 331 330 330 330 330 330 330 329 329 328 329 329 328 328 329 329 330 331 330 329 328 327 326 324 325 326 325 325 328 330 330 327 326 326 325 323 320 318 317 319 321 321 323 323 323 323 324 324 324 325 326 330 333 334 334 334 335 336 337 337 338 339 341 343 342 342 342 339 338
338 337 341 343 341 340 338 336 336 336 336 336 335 334 333 333 332 330 328 329 331 331 330 329 330 329 329 328 328 328 328 328 330 332 333 332 331 330 327 325 326 327 326 327 329 330 330 329 327 326 325 324 321 319 318 318 319 321 322 322 321 321 322 322 323 324 326 328 332 334 336 336 336 337 336 336 337 338 340 342 342 342 342 339 338
337 339 342 341 339 339 338 337 337 336 335 335 333 333 333 333 332 331 330 332 332 332 331 330 329 328 327 328 328 327 327 328 330 332 332 331 330 328 327 327 329 329 328 329 330 330 329 329 328 327 326 325 322 320 319 318 318 319 320 321 320 320 320 320 322 323 325 326 329 331 333 335 336 337 337 336 337 339 339 340 341 342 342 340 338
336 342 342 339 337 337 335 335 335 335 335 334 333 332 333 334 334 333 334 334 334 333 332 331 329 328 327 327 328 328 328 330 331 331 330 329 327 327 328 328 328 329 328 328 328 328 327 328 328 327 326 325 323 322 320 317 318 319 320 321 320 319 319 320 320 322 323 324 326 329 331 332 334 336 337 338 338 339 339 339 340 341 342 342 339
333 341 342 338 336 335 333 332 334 334 334 333 332 333 334 334 334 333 334 335 334 333 331 330 329 328 328 328 328 328 329 329 330 329 328 327 325 324 325 325 324 324 325 325 326 326 327 327 327 326 326 326 324 322 319 318 319 321 321 320 319 319 319 320 319 320 322 323 324 326 328 330 331 334 336 338 338 339 340 341 341 341 342 344 343
334 339 340 337 335 335 333 332 333 334 333 332 332 333 333 333 333 333 334 334 334 332 330 329 329 327 327 327 327 328 329 328 327 326 325 326 325 324 323 323 321 321 322 322 323 325 326 326 326 326 327 327 326 322 319 319 321 322 321 320 319 319 319 320 320 320 322 323 324 325 326 328 330 332 334 336 338 339 341 342 342 342 343 345 345
337 339 339 336 336 336 334 334 335 334 333 332 332 331 331 332 333 333 333 333 333 331 329 328 328 326 326 327 328 329 328 327 326 325 324 324 325 326 326 324 324 323 322 320 320 321 324 327 329 328 326 326 327 324 321 321 321 320 320 319 319 319 319 320 321 321 322 322 323 325 326 327 328 330 332 335 338 340 341 341 342 342 341 342 345
337 338 338 336 336 335 334 335 335 333 333 332 331 331 331 332 333 332 333 333 332 330 328 327 327 326 326 328 328 327 326 325 325 325 325 325 325 326 326 325 324 323 322 322 322 321 324 327 328 326 325 326 326 324 322 322 321 319 319 319 319 319 319 320 321 322 322 322 323 324 324 326 327 328 331 334 337 339 340 341 340 341 341 341 343
335 337 337 336 336 335 334 335 334 332 332 331 330 330 331 332 332 331 332 332 331 329 327 327 326 326 326 327 327 326 326 325 325 325 326 326 326 326 325 323 322 321 321 323 324 322 323 325 326 324 325 325 324 322 322 321 320 320 320 319 318 318 319 320 322 322 322 322 322 322 323 324 325 327 329 332 334 336 339 340 339 340 340 342 342
335 336 336 336 335 334 334 334 331 330 331 330 329 330 331 332 332 332 332 332 330 328 327 326 326 326 326 327 326 326 327 327 327 326 326 326 325 325 324 323 323 322 322 322 322 321 322 323 324 324 322 320 321 322 321 320 320 321 321 319 318 318 318 319 320 321 322 322 321 321 322 322 324 325 327 330 332 334 336 338 339 340 340 340 340
334 335 335 335 334 333 332 331 328 327 328 329 329 330 330 331 331 330 330 330 330 329 326 326 326 326 326 326 326 326 328 328 327 327 326 325 323 322 322 322 323 323 322 321 321 320 321 322 323 324 321 318 320 322 321 321 322 322 320 318 318 318 317 317 318 320 321 321 321 322 322 322 323 325 327 330 332 333 335 337 338 339 340 340 340
331 330 330 331 332 331 329 328 328 327 328 329 329 329 330 330 328 327 328 329 330 329 327 327 327 326 326 327 327 328 328 327 327 327 327 325 322 321 322 322 324 323 322 320 319 319 321 322 324 325 322 320 320 320 320 322 323 321 319 318 317 317 316 316 318 320 321 321 321 323 325 325 325 327 328 330 332 333 335 336 337 339 340 339 339
328 327 326 327 328 329 328 327 327 327 328 330 329 328 329 328 327 327 327 328 329 329 329 327 327 327 327 326 326 327 327 327 326 327 326 323 321 322 322 322 323 323 320 318 317 319 321 323 324 325 323 320 319 319 320 322 322 320 318 317 317 317 316 316 318 320 321 321 323 326 329 329 328 328 329 331 332 333 334 336 337 338 339 338 338
327 326 326 326 326 326 326 326 327 327 329 329 328 328 328 327 326 326 327 328 328 327 327 327 326 327 327 325 325 326 326 326 326 325 323 322 322 323 323 322 323 322 320 319 319 320 323 323 323 324 323 321 319 319 321 322 321 319 318 317 317 316 315 316 318 320 321 321 322 326 331 332 331 330 329 330 332 334 334 336 337 338 339 338 337
327 326 327 327 326 326 326 326 327 328 329 329 329 328 327 327 327 328 329 330 329 328 328 328 327 326 327 326 325 324 325 325 325 323 321 321 322 323 322 323 322 321 321 320 320 322 323 323 323 323 322 320 319 320 322 322 322 319 318 318 317 315 315 315 317 320 321 321 321 324 328 331 332 331 330 330 332 333 334 336 337 339 339 338 336
327 327 327 327 326 327 327 328 330 330 330 331 330 328 328 328 328 329 329 329 328 328 329 328 326 326 327 327 325 324 325 324 324 323 322 322 323 323 322 323 322 321 321 321 321 323 324 323 323 323 321 318 319 322 322 322 322 320 318 319 318 315 314 315 317 319 320 321 321 322 325 329 331 332 333 333 333 334 335 336 337 338 338 338 337
326 326 326 326 327 328 329 329 331 332 332 331 330 329 328 327 327 328 327 325 326 327 328 328 327 326 326 326 325 325 325 323 323 325 324 323 323 323 323 323 322 321 321 321 321 323 323 323 324 323 320 319 321 323 322 322 323 321 319 320 319 315 314 315 316 318 319 320 321 321 323 327 331 333 334 334 334 334 335 336 337 337 337 336 337
325 326 326 327 328 330 329 330 332 333 332 330 329 328 327 326 326 326 325 325 327 327 328 328 328 327 326 326 325 325 324 322 323 324 324 323 323 323 322 322 321 321 321 321 321 322 323 323 324 322 320 321 324 324 323 323 324 322 320 321 320 315 313 315 315 316 318 320 321 321 321 323 327 330 332 334 335 335 335 336 336 335 334 334 334
326 327 328 328 329 331 332 333 333 334 332 329 328 327 327 327 326 326 326 326 327 327 328 328 328 328 327 325 323 323 323 322 321 322 322 323 323 322 321 320 320 320 321 321 321 322 323 324 323 321 321 322 324 324 324 324 324 323 321 322 321 316 313 314 315 315 316 318 320 321 321 321 323 325 328 333 336 337 337 337 336 334 333 332 333
329 328 328 329 331 333 334 334 334 332 330 329 328 328 328 327 326 326 326 327 327 327 328 328 328 327 325 324 323 323 323 322 321 321 322 323 322 320 319 319 319 320 321 322 323 324 324 323 321 321 322 323 323 324 324 323 323 323 323 322 320 317 314 314 314 314 315 316 317 318 320 320 321 322 324 330 335 338 338 338 337 337 336 335 335
329 330 330 331 332 334 335 334 332 331 331 330 329 328 327 326 326 326 326 326 326 327 327 327 326 325 324 324 324 323 323 323 322 322 323 322 320 318 318 318 318 319 321 323 324 324 323 322 322 323 323 323 322 323 323 322 322 323 323 323 321 318 315 314 314 314 314 315 315 316 318 319 320 321 322 326 331 336 338 338 338 338 338 337 337
333 334 334 333 333 334 334 333 332 332 331 330 328 326 326 326 326 326 326 326 326 325 324 324 325 324 323 323 323 322 322 323 323 323 323 321 318 317 317 317 318 319 320 322 323 323 322 322 323 323 322 321 321 321 322 322 322 322 323 323 322 319 316 315 314 313 314 315 315 315 316 317 319 320 320 322 326 331 336 338 338 338 338 338 338
335 333 332 332 333 334 333 332 331 330 329 327 326 326 326 326 326 326 325 324 324 323 321 322 322 322 323 323 322 321 322 323 323 322 321 319 317 316 316 317 318 319 321 321 322 322 322 322 323 322 321 320 321 321 321 322 321 322 323 323 322 321 319 317 315 314 314 315 315 315 315 315 317 318 319 320 321 325 331 336 337 337 338 339 338
331 331 331 333 334 333 332 331 329 328 327 327 327 327 327 327 326 325 324 323 322 321 321 321 320 321 322 322 322 322 322 322 322 321 320 318 315 313 314 315 317 319 321 321 322 322 322 322 322 321 320 320 321 321 321 322 321 322 323 322 322 322 321 320 318 316 314 315 315 316 316 315 315 316 318 320 320 321 325 330 334 335 337 338 339
330 331 332 332 331 331 331 329 328 328 328 327 326 326 326 325 325 325 324 324 323 322 320 319 320 320 321 321 321 321 321 321 321 320 318 316 313 311 311 314 316 318 320 321 321 321 320 320 320 320 319 320 320 320 321 321 321 322 322 321 321 322 322 322 321 320 318 317 316 315 316 317 316 316 316 318 320 321 321 324 328 330 332 334 335
330 330 330 330 329 330 329 328 327 328 327 326 325 324 324 324 325 325 325 325 324 321 319 319 320 321 321 321 321 321 321 321 320 319 317 313 310 309 310 312 314 316 319 320 320 319 319 318 319 319 319 319 319 319 319 320 320 320 321 321 321 322 322 322 323 321 320 320 319 318 317 317 316 316 316 316 319 321 321 321 322 325 326 328 329
330 330 329 329 329 328 328 328 328 327 326 325 324 324 324 324 326 326 325 324 323 320 319 320 321 321 321 321 320 321 320 320 319 317 313 310 308 309 311 312 312 314 317 319 318 318 318 317 317 318 318 318 318 318 318 319 319 319 320 320 320 321 321 322 322 321 320 320 321 322 320 317 315 316 316 316 317 319 321 321 321 321 322 323 324
329 329 328 329 329 328 328 328 327 325 325 324 324 325 326 326 326 325 324 323 322 320 321 321 320 320 319 318 318 318 317 317 316 313 310 309 309 310 313 314 313 313 315 317 318 317 317 317 317 317 317 317 318 318 318 319 318 319 319 319 319 320 320 320 321 321 320 319 321 322 323 320 316 315 316 316 316 317 320 321 321 321 320 320 320
329 330 329 329 329 328 327 327 326 326 326 326 326 326 326 326 325 324 322 321 320 320 321 321 319 318 316 315 314 312 312 311 310 309 308 308 309 311 314 315 314 313 314 315 316 316 316 316 317 317 317 317 317 318 318 318 318 318 318 318 318 319 319 319 320 320 320 321 321 321 323 322 320 318 319 318 317 316 317 318 321 322 322 321 320
330 330 329 328 327 325 324 325 326 326 326 325 326 326 325 323 323 323 322 322 321 321 321 320 319 317 315 313 313 312 310 310 309 308 308 307 308 312 316 316 314 313 314 314 314 315 315 315 316 316 316 316 316 316 316 316 316 316 317 317 317 317 318 318 319 319 320 320 321 321 321 322 322 322 322 321 321 320 317 317 319 320 321 321 321
329 327 327 327 327 326 325 325 326 326 325 324 324 324 324 323 323 323 323 323 322 321 321 320 319 317 314 313 313 313 311 310 309 309 310 309 308 311 315 315 313 312 313 313 313 313 313 313 313 312 313 313 313 313 313 313 313 313 313 314 315 315 315 316 316 316 317 319 319 320 320 321 321 322 322 322 323 322 321 320 320 320 320 320 321
327 327 326 327 327 327 327 328 327 326 325 324 324 323 323 322 322 322 322 322 321 321 320 319 318 316 314 314 314 313 311 310 310 311 311 310 309 310 312 312 312 312 312 312 312 312 311 310 309 309 310 310 310 310 310 310 310 310 310 310 311 312 312 312 313 313 314 315 316 318 319 319 319 320 321 321 322 322 322 322 322 322 321 320 319
329 328 327 327 327 327 327 328 327 325 324 324 324 323 322 321 321 320 320 320 320 319 318 317 316 315 314 314 314 313 311 310 311 312 310 309 309 309 309 311 311 312 311 311 312 311 310 308 308 307 307 307 307 307 308 308 308 308 308 308 309 309 309 309 309 310 311 311 312 314 316 316 316 317 319 320 321 321 322 322 323 323 322 321 321
328 327 326 326 326 326 326 327 326 325 324 324 323 322 321 320 319 319 318 317 317 317 316 316 315 314 314 314 312 311 310 311 312 312 310 309 308 308 308 309 310 311 310 311 310 309 308 306 306 306 305 305 305 305 305 306 306 306 306 306 307 307 307 308 308 308 308 308 309 310 312 313 313 313 315 317 318 320 321 321 322 322 322 323 323
327 326 325 325 325 325 325 326 326 325 324 323 322 320 320 318 318 317 317 317 317 316 316 315 314 314 313 312 310 310 310 311 312 311 309 308 308 307 307 308 308 309 309 308 308 307 305 304 304 304 304 305 304 303 303 304 304 304 304 304 304 304 305 305 305 305 305 306 306 307 308 309 309 310 311 313 314 316 318 320 320 321 322 322 323
326 325 325 324 324 324 325 325 324 324 324 322 320 319 318 318 317 317 317 317 316 316 315 314 313 313 313 311 309 308 310 311 310 309 308 308 308 307 307 307 308 308 308 307 306 305 304 304 304 303 303 303 303 302 302 303 302 302 302 302 301 302 302 302 302 303 303 303 304 304 304 305 306 306 307 309 309 311 313 316 317 319 320 321 322
325 324 323 322 322 322 324 324 324 323 322 321 319 318 318 318 317 316 316 316 316 315 315 314 312 312 312 311 309 307 308 308 308 308 307 307 307 307 306 306 307 308 307 306 304 304 303 303 303 303 302 301 301 301 301 301 300 299 299 299 299 299 300 300 300 300 301 301 301 301 301 301 301 302 304 306 307 307 309 311 313 315 318 320 321
324 323 323 322 322 323 323 324 323 322 321 320 319 319 318 317 316 316 316 315 315 315 314 313 312 311 311 310 308 306 306 307 307 306 306 307 307 306 305 305 305 306 306 305 304 302 302 302 302 301 300 299 299 299 299 298 298 297 297 296 297 297 297 297 297 297 298 299 299 299 298 298 298 298 300 303 304 305 306 307 308 311 313 316 319
323 323 323 323 323 323 323 322 322 321 320 320 319 318 317 316 316 316 315 314 315 315 314 313 312 311 310 309 307 305 305 306 306 305 306 306 306 306 305 305 305 304 305 304 303 301 301 301 300 299 298 297 297 297 297 296 295 295 294 294 294 294 294 295 295 295 296 297 297 296 296 296 295 296 297 299 301 302 304 305 306 307 309 311 314
322 322 322 322 322 322 322 321 320 320 319 318 318 317 316 315 315 315 314 313 314 313 312 312 311 310 308 308 306 305 305 305 305 305 305 305 305 306 306 305 304 304 304 303 301 299 299 299 298 297 296 295 294 295 295 294 293 293 293 293 293 293 294 294 294 294 294 295 295 295 296 295 295 294 295 296 296 298 301 303 304 304 306 307 310
321 321 320 320 320 320 320 320 319 319 318 317 316 316 315 315 314 314 313 313 312 311 311 310 310 309 307 307 306 306 305 305 305 305 305 304 305 305 305 304 304 304 303 301 300 299 297 295 295 294 294 293 293 293 293 293 293 293 293 293 293 293 293 294 294 294 294 295 295 295 296 296 295 294 294 295 294 295 298 300 301 302 303 304 306
318 318 318 318 318 318 317 318 318 318 317 316 315 315 315 315 314 313 313 312 311 310 309 309 309 307 306 306 306 306 305 305 305 304 304 305 304 305 304 304 303 303 301 299 298 298 297 295 293 293 293 292 292 292 293 293 293 293 293 293 293 293 293 294 294 294 294 294 295 295 296 296 295 294 294 295 295 294 296 298 300 301 300 300 302
316 316 317 317 317 316 316 316 316 316 316 315 315 315 315 314 313 313 312 311 310 309 308 308 307 306 306 305 306 305 305 305 305 304 305 305 304 304 304 303 302 302 301 299 296 296 295 293 293 294 294 294 293 292 292 292 292 293 293 293 293 293 293 293 294 294 294 294 294 295 295 296 296 295 294 294 295 295 295 298 300 301 300 299 300
315 315 315 315 315 315 315 315 314 314 314 314 314 314 314 313 312 312 311 310 309 309 308 307 306 305 305 305 305 305 305 305 304 304 305 304 304 304 303 300 299 300 301 300 297 297 297 295 293 293 293 294 295 294 292 291 291 292 292 292 293 293 293 293 293 293 293 293 294 294 294 295 297 296 294 293 294 295 296 297 300 300 300 299 300
314 314 314 314 314 314 314 314 314 314 314 314 313 313 313 312 311 311 310 310 309 308 307 306 305 305 305 305 305 305 305 305 304 304 304 304 303 303 301 299 298 299 300 299 298 298 298 297 296 294 293 293 294 294 293 291 291 292 292 292 292 292 292 292 293 293 293 293 294 294 294 295 296 296 294 293 293 295 296 297 299 299 299 300 300
313 312 312 313 313 313 313 313 313 312 312 312 312 312 312 311 310 310 309 309 308 307 307 306 305 305 305 305 305 305 305 304 304 304 303 303 302 302 301 299 299 299 299 299 299 299 298 298 297 296 295 294 295 294 293 292 291 291 292 292 291 291 292 292 292 293 293 293 293 294 294 294 294 295 294 293 293 294 295 297 298 298 298 299 299
Wind_Speed
16 14 12 10 9 9 8 8 7 7 6 5 6 6 8 9 10 10 11 11 12 12 11 12 12 14 15 15 16 17 17 17 17 17 17 18 18 17 16 16 16 16 16 16 16 17 18 19 18 18 20 24 27 30 30 30 30 31 31 32 33 32 31 31 34 39 40 37 38 38 36 34 34 32 31 31 30 29 31 33 32 31 32 34 33
17 15 12 11 10 9 8 8 8 7 6 7 7 7 9 10 10 11 11 11 12 12 12 13 12 14 15 16 17 18 18 18 17 18 18 19 19 18 17 16 17 17 17 17 18 18 19 19 18 18 20 24 27 30 32 31 30 32 33 32 32 32 31 30 32 35 38 37 36 36 33 30 32 33 30 31 31 32 33 35 34 33 32 32 32
18 14 12 12 10 9 9 9 9 8 8 7 7 8 9 10 12 12 11 10 11 13 14 14 14 14 16 17 18 18 18 19 19 19 18 19 20 18 17 17 18 18 18 19 20 20 20 19 16 17 19 22 25 29 31 33 32 32 31 30 30 32 31 30 30 32 35 36 35 34 32 29 31 32 30 30 31 32 34 35 35 34 34 34 33
18 13 11 11 10 9 9 9 10 9 8 8 8 9 8 9 9 9 10 12 13 13 13 13 14 16 18 18 18 19 19 21 22 20 19 19 20 20 20 19 19 19 19 20 22 22 21 20 17 17 19 21 24 28 31 32 33 32 29 28 30 31 32 31 30 31 33 34 34 34 33 30 30 30 30 29 30 31 33 33 33 32 32 34 35
17 13 11 12 11 11 9 9 10 9 9 9 9 9 10 10 9 8 10 12 13 12 12 14 16 17 18 18 19 20 21 22 24 23 21 20 21 22 22 22 21 19 20 22 24 24 22 21 19 18 19 20 23 28 30 30 31 32 28 26 29 32 33 33 31 30 32 33 33 34 35 32 30 31 31 30 31 33 33 31 31 31 31 32 33
16 12 13 13 12 12 10 9 10 10 11 11 10 10 11 12 10 9 10 11 13 13 14 16 17 17 18 19 20 20 21 22 24 25 23 20 21 23 22 21 21 21 22 24 24 23 23 23 22 20 19 19 22 25 28 29 29 30 28 28 31 33 34 34 32 30 31 31 30 30 32 32 32 34 34 32 31 32 32 31 31 31 30 31 32
15 12 15 15 14 13 12 11 11 12 12 12 11 11 11 11 10 11 12 12 13 14 14 15 15 17 19 19 20 21 21 20 22 24 23 19 18 21 20 19 19 21 24 25 24 23 24 25 25 22 19 18 21 24 26 29 29 28 29 33 36 37 38 37 34 30 30 30 29 27 28 30 31 33 34 33 32 31 31 32 34 32 30 30 32
15 13 16 15 14 14 12 12 13 13 13 13 12 12 12 13 13 13 13 13 13 13 13 15 17 18 18 19 20 20 20 19 20 22 21 18 16 18 19 18 17 20 25 25 24 23 25 26 26 23 21 20 21 24 26 28 29 29 31 36 40 41 41 41 38 33 31 30 29 28 28 28 28 30 31 31 31 32 31 32 33 32 31 32 33
14 15 18 16 13 14 14 13 15 15 14 13 12 12 13 13 13 13 13 15 14 13 13 16 18 18 17 17 17 18 18 18 18 17 17 16 16 16 18 19 19 21 25 26 25 26 26 27 27 25 24 23 22 24 25 27 28 29 33 37 41 43 43 42 42 38 33 32 30 29 30 31 30 29 30 31 31 31 30 31 33 34 34 36 34
13 20 23 17 14 16 16 16 17 15 14 13 12 12 12 12 14 14 14 16 16 13 13 15 16 15 15 16 16 15 17 17 15 14 14 15 16 15 16 18 20 21 24 25 26 28 29 29 29 29 28 24 21 24 26 26 27 28 32 36 39 42 43 43 43 39 35 33 32 29 29 32 33 30 29 29 29 30 30 31 34 34 34 37 36
15 24 24 15 13 17 18 18 18 16 14 13 12 12 12 13 14 14 14 16 16 14 13 14 14 15 15 14 14 16 19 19 17 16 15 13 14 15 16 19 21 21 22 24 26 28 30 31 31 30 27 23 19 22 27 25 24 27 31 35 38 41 44 44 42 39 35 33 32 30 29 31 33 31 30 29 28 29 31 32 33 33 34 36 36
21 24 20 14 15 19 19 19 18 16 14 13 12 13 14 14 14 14 14 16 15 14 14 14 16 16 14 12 15 18 19 19 18 18 18 16 14 16 18 19 21 22 24 26 27 26 28 31 33 29 25 24 23 22 25 24 25 28 32 34 38 41 43 42 38 36 35 34 33 32 31 32 33 32 31 29 26 27 30 31 30 32 35 36 36
25 22 17 16 19 21 20 19 18 15 14 13 14 14 14 14 13 14 15 15 16 15 15 16 16 16 14 14 17 19 18 18 19 20 21 20 18 18 20 22 23 23 24 25 26 27 26 29 32 27 23 26 27 24 23 24 27 31 32 34 38 41 42 40 36 35 35 35 35 35 34 32 33 33 31 29 26 26 29 29 28 31 34 36 37
22 18 17 19 21 20 20 20 18 16 14 14 15 15 14 14 14 15 16 16 17 16 15 16 17 16 17 17 18 19 21 22 22 23 23 21 19 20 22 25 25 24 23 22 24 27 26 27 27 23 21 23 24 23 23 25 29 32 32 35 38 41 43 43 42 39 36 35 37 38 37 34 34 34 32 31 31 29 27 26 27 31 34 33 33
19 17 19 21 21 19 20 19 17 15 15 15 16 15 14 14 15 16 17 18 18 17 17 17 18 17 17 19 19 20 22 23 23 24 24 21 20 20 22 23 24 24 23 20 21 24 25 24 22 21 21 21 20 20 23 26 30 31 31 34 39 42 45 46 45 41 37 36 38 40 40 38 37 37 35 32 32 32 30 27 27 30 32 31 30
20 20 21 21 20 19 19 18 16 15 15 16 16 15 16 17 16 16 17 19 19 19 19 19 19 18 17 19 21 19 20 22 23 24 24 22 21 20 20 20 21 22 23 20 20 22 22 23 23 20 19 18 17 19 23 27 29 29 29 34 39 44 48 48 46 43 40 40 41 39 39 39 39 40 39 34 32 32 31 30 30 29 27 26 28
20 21 21 21 20 19 18 17 16 16 16 17 16 17 18 17 15 15 17 18 18 19 20 19 19 19 17 17 19 19 21 22 22 23 23 21 20 19 18 17 18 21 22 20 19 19 20 23 23 19 17 18 18 20 23 26 27 25 27 34 40 45 50 49 47 45 44 44 43 38 35 38 40 40 39 37 35 33 30 30 31 29 25 25 27
19 19 20 20 19 18 17 17 16 16 17 17 16 17 18 16 16 18 20 18 17 19 19 19 20 21 18 16 17 20 22 21 20 22 22 19 18 17 16 16 18 20 22 20 18 18 19 20 19 16 17 20 21 22 25 25 23 22 27 34 40 45 49 48 49 50 49 49 45 34 28 33 36 37 39 39 37 37 34 31 28 26 27 29 29
19 18 19 18 17 17 16 17 18 18 18 18 17 16 18 19 20 22 22 19 17 19 20 20 21 21 18 14 14 17 19 17 18 21 20 16 16 15 15 17 19 20 21 20 19 19 19 19 18 17 19 21 22 24 24 22 20 21 28 35 39 43 46 47 51 52 51 52 49 36 24 23 27 32 37 37 38 40 39 33 27 25 28 31 30
18 17 18 17 16 17 17 18 20 20 19 18 17 15 17 19 20 20 19 17 18 19 21 20 20 18 17 15 15 17 17 17 17 19 18 15 14 14 14 16 18 20 20 21 22 21 20 19 19 19 20 22 24 24 22 20 19 22 28 33 36 41 44 47 50 52 50 51 50 41 28 18 18 24 30 33 36 41 42 38 32 27 27 28 29
18 16 16 17 17 17 16 16 19 22 20 18 17 16 15 16 17 17 17 18 19 20 22 23 21 18 17 18 18 17 16 16 16 17 18 15 13 13 14 15 17 19 21 22 22 20 20 21 20 19 21 23 24 23 20 19 19 21 26 30 33 38 43 45 49 51 50 50 50 45 34 21 12 14 22 28 33 39 42 41 37 31 28 29 30
16 15 16 18 18 18 17 17 20 21 19 18 17 15 15 17 19 20 20 21 21 22 23 24 22 20 19 19 19 18 16 15 14 15 15 14 12 12 14 15 17 19 21 22 21 20 21 21 20 20 22 23 23 22 20 19 19 20 23 26 29 36 40 42 46 50 51 51 52 50 43 28 14 6 10 18 28 37 42 42 40 37 33 32 33
14 14 15 16 19 21 21 20 20 20 18 18 17 16 18 21 21 21 21 21 22 22 22 23 24 24 22 22 22 21 17 14 13 14 14 14 14 15 17 18 18 20 20 21 21 20 19 19 20 21 21 20 20 20 19 19 18 18 20 23 27 34 39 40 43 48 51 53 53 53 50 40 27 16 8 8 19 31 39 40 41 41 39 37 36
11 13 13 16 20 22 20 17 17 17 18 20 19 19 20 20 19 19 19 20 21 21 22 24 25 23 20 19 20 19 16 14 14 15 16 17 17 18 20 19 18 18 18 19 18 16 16 18 20 19 18 18 18 18 18 19 18 16 18 20 24 32 39 40 42 46 50 53 54 53 52 48 40 31 18 7 15 24 31 35 36 38 40 41 39
17 18 17 17 18 18 17 17 16 16 17 19 20 18 16 16 18 18 16 18 20 20 20 21 20 19 18 17 16 16 15 14 14 14 17 19 20 20 19 17 16 15 14 14 14 13 15 18 18 17 16 17 16 16 17 20 19 16 15 17 21 29 36 39 41 45 48 51 52 53 52 50 45 41 30 11 15 23 26 29 30 31 33 36 38
24 23 21 20 20 20 20 18 16 15 16 16 16 15 14 15 16 16 16 17 18 19 18 18 17 18 17 15 14 14 12 12 13 14 16 20 20 18 17 16 15 14 11 10 11 14 16 17 16 15 16 17 17 17 18 18 18 16 14 15 18 23 30 35 38 42 45 48 50 51 52 51 46 43 39 23 5 18 24 29 30 29 31 32 33
23 22 22 22 21 20 20 17 14 13 14 13 13 13 13 12 13 15 16 17 17 18 17 16 16 16 15 15 16 15 11 9 11 15 17 20 19 17 16 15 15 14 12 11 12 15 16 15 13 13 16 18 19 19 17 15 16 15 14 16 16 17 23 29 32 36 40 44 46 47 48 49 47 44 44 39 23 2 16 28 29 26 28 32 33
19 19 19 17 15 15 16 14 13 12 12 14 15 15 14 15 16 18 19 20 21 20 18 17 15 14 14 15 15 13 10 9 12 16 19 20 18 15 15 15 14 13 12 11 12 13 12 11 11 14 18 19 19 17 15 13 14 14 15 17 17 15 17 21 25 31 36 38 40 43 45 48 49 46 44 43 39 27 6 18 25 21 20 24 28
14 13 11 10 11 13 14 12 11 11 12 12 14 14 14 15 17 19 21 21 21 21 20 20 17 13 12 13 11 9 10 12 15 17 18 17 16 15 15 15 14 12 11 10 12 12 10 8 12 17 18 17 16 15 13 12 13 14 15 16 18 18 16 16 19 25 30 33 37 39 41 44 47 47 45 42 41 39 29 11 7 12 13 17 20
10 9 8 8 9 10 9 7 8 9 10 11 13 14 14 15 16 19 20 19 19 21 21 18 15 11 12 13 12 11 12 14 16 16 15 15 15 16 16 15 15 13 11 10 10 10 9 9 13 15 15 13 13 13 14 13 14 15 15 16 18 20 19 18 18 19 21 26 31 35 36 38 42 45 45 43 39 38 38 33 23 13 7 5 8
10 9 8 9 10 10 10 7 7 9 10 13 15 16 16 16 16 17 18 18 19 19 16 12 10 9 9 11 12 12 13 15 15 15 14 13 14 15 15 16 16 14 11 10 8 8 9 10 11 12 11 11 12 13 14 14 15 16 16 17 18 20 21 21 20 18 17 19 23 27 31 34 37 39 40 41 40 37 38 38 36 32 28 25 18
11 10 9 9 10 11 13 12 11 10 10 11 11 13 15 16 16 16 18 18 16 14 11 8 8 7 7 8 10 11 12 12 12 12 12 13 13 13 14 16 16 13 9 7 7 7 8 9 10 11 10 10 11 12 14 15 16 17 18 18 19 20 21 22 21 20 20 20 20 21 24 27 31 33 34 37 38 36 35 36 37 37 35 34 32
11 11 10 9 9 10 13 13 11 10 10 10 10 11 12 14 15 16 15 15 13 11 8 7 7 6 5 5 6 7 9 10 11 12 12 13 13 12 11 14 16 13 9 6 5 7 8 8 9 10 9 10 11 13 14 15 16 17 18 19 19 19 20 21 22 22 23 22 21 20 20 22 24 26 28 31 35 35 33 33 33 34 35 34 34
11 11 11 10 10 11 11 11 10 10 9 9 10 10 10 12 16 17 15 13 12 10 7 6 6 7 7 6 6 7 8 9 11 12 13 14 12 9 9 10 11 11 10 8 5 6 7 7 7 8 8 9 10 11 12 13 13 14 15 16 16 16 17 19 20 21 23 23 23 22 21 20 21 22 23 24 28 30 31 31 30 30 30 30 31
11 11 11 12 11 11 13 14 14 13 10 10 10 11 12 14 15 13 11 10 9 9 8 8 6 7 8 7 8 9 11 12 13 13 15 15 11 5 5 7 5 5 8 8 6 6 6 6 6 7 7 8 8 9 9 10 11 12 12 12 13 14 15 16 17 18 19 20 21 21 22 21 21 21 21 20 21 23 25 26 27 27 26 25 25
11 11 12 12 11 12 14 14 13 12 11 12 13 14 14 12 9 7 6 6 6 7 8 8 7 8 9 8 8 9 12 14 14 15 16 15 9 2 2 3 2 4 5 5 5 5 5 5 6 6 6 7 8 8 9 10 12 12 12 12 13 14 15 16 17 19 19 18 18 19 20 21 21 21 20 20 19 19 19 18 19 21 22 22 23
12 14 14 13 13 15 14 12 12 11 11 12 13 13 12 9 5 3 4 5 5 5 5 6 7 8 9 9 8 9 11 11 12 14 14 12 9 4 1 1 2 3 3 4 4 4 6 6 7 8 8 8 9 9 10 11 12 12 12 13 14 14 15 16 17 18 19 19 19 18 18 20 22 21 20 19 18 17 16 15 14 15 16 18 20
14 14 14 13 14 15 14 12 12 13 13 13 12 9 7 5 4 3 5 6 5 4 4 4 5 5 6 8 10 11 11 10 9 11 10 9 7 5 3 3 2 1 2 2 2 3 5 7 8 9 10 10 10 10 11 11 11 11 12 13 13 13 14 15 16 17 18 19 19 19 18 19 21 21 20 20 19 17 16 15 14 13 13 13 15
16 15 12 11 12 13 12 9 10 11 11 10 8 7 7 7 6 6 8 7 5 4 5 4 4 7 10 12 13 11 8 5 4 3 3 6 6 4 3 2 1 0 1 2 3 4 5 6 6 6 8 9 10 11 12 12 12 12 12 12 13 13 14 14 15 15 16 17 18 18 17 17 19 19 19 19 19 18 16 15 14 14 13 12 12
15 15 14 12 10 11 10 7 9 10 9 8 7 8 9 9 8 8 8 7 6 6 6 4 6 12 14 11 8 7 4 1 3 6 5 3 4 2 1 2 2 2 3 4 3 4 4 4 4 6 8 9 10 11 12 12 13 13 13 13 13 13 13 14 13 13 13 14 15 16 16 16 16 17 17 18 19 19 17 16 15 14 14 12 11
13 14 16 15 12 11 10 8 9 10 10 9 8 8 9 9 10 9 9 8 8 7 6 5 8 13 13 10 6 8 8 2 3 5 4 4 5 4 3 3 4 4 4 4 2 2 3 5 6 7 9 10 11 11 12 12 12 12 12 12 12 12 12 13 12 12 12 11 12 14 16 16 16 16 16 16 17 18 18 17 16 15 14 13 12
13 13 13 14 13 12 10 10 11 12 9 8 8 9 10 12 12 10 8 8 8 7 7 9 11 13 15 15 11 8 8 4 2 2 3 5 6 4 1 4 5 6 6 5 2 2 4 5 6 7 9 11 11 12 13 12 12 11 10 10 11 11 11 11 12 11 11 10 11 13 15 16 16 16 15 14 15 16 16 17 17 16 15 14 13
9 8 8 10 12 12 11 12 12 10 7 8 9 10 11 13 13 10 8 8 7 6 8 12 14 15 17 17 13 6 6 3 2 2 4 4 2 1 3 6 7 6 7 8 6 2 3 4 5 7 9 10 9 10 10 10 10 10 9 9 10 10 10 11 11 11 11 10 11 13 15 17 17 17 15 15 15 15 15 15 16 16 16 15 14
5 6 7 9 11 12 13 14 12 8 8 11 13 12 12 14 13 9 7 7 7 6 8 12 13 12 12 12 9 3 3 3 3 3 4 3 2 3 5 7 7 4 5 9 9 3 1 2 5 5 6 7 7 7 8 8 8 9 9 9 10 10 10 11 11 11 12 11 11 13 16 17 18 17 17 16 16 15 15 14 14 15 15 15 14
5 6 7 8 10 10 11 12 10 7 8 10 11 11 12 13 11 8 6 6 5 4 5 9 11 11 10 7 4 1 2 3 4 4 4 4 4 4 4 5 4 3 5 7 8 4 0 1 3 3 4 4 5 6 7 8 8 9 9 10 10 11 11 12 12 11 12 11 11 13 16 17 17 17 17 17 17 16 15 15 16 16 16 14 14
4 4 4 5 7 7 7 7 7 6 6 6 6 8 9 10 10 9 9 9 8 6 5 6 9 11 9 6 4 4 3 3 3 3 4 5 4 3 4 4 5 7 8 7 5 4 3 1 1 2 3 3 4 5 6 7 8 8 9 10 10 10 11 11 11 11 11 11 11 12 14 16 16 15 15 16 17 16 16 17 19 20 18 15 14
2 2 2 4 5 6 5 5 6 6 6 6 6 7 9 11 12 11 10 11 11 9 8 7 8 8 7 6 6 5 4 3 4 5 5 4 2 4 7 9 8 6 7 6 2 1 2 2 3 3 3 3 4 4 5 7 7 7 8 8 9 9 9 10 9 10 11 11 11 11 12 14 14 14 14 14 15 16 16 17 20 21 20 18 18
3 4 4 6 6 6 5 6 6 6 7 8 9 11 12 14 14 12 12 12 10 8 7 7 7 7 6 6 7 7 6 5 6 6 5 3 4 8 11 10 6 4 4 5 3 1 2 2 2 3 4 5 5 4 4 5 6 6 6 6 7 7 8 8 8 8 9 10 10 9 10 12 13 13 13 12 13 14 15 16 19 19 19 19 20
5 5 6 8 9 9 8 9 10 10 9 9 10 12 14 14 13 12 12 11 10 8 8 9 9 9 8 8 7 7 7 7 6 6 6 6 7 10 12 10 6 6 4 3 2 2 3 4 5 5 4 4 5 5 5 5 5 5 5 5 5 5 6 6 7 7 7 8 9 8 8 10 11 12 12 11 11 12 13 15 17 18 18 18 19
7 7 7 8 9 10 11 11 12 12 11 10 11 12 13 12 12 11 11 10 9 9 10 10 11 10 10 9 8 7 7 7 7 6 6 6 7 7 9 6 4 6 5 3 2 1 2 3 5 6 6 4 6 8 7 6 6 5 5 5 5 5 4 5 5 5 6 7 7 7 7 8 9 9 10 10 9 10 11 14 16 16 16 17 18
11 10 10 10 11 12 12 11 11 12 12 11 10 12 12 11 10 10 10 10 10 10 10 10 11 11 10 9 9 8 7 7 7 6 6 7 7 7 6 5 4 5 4 3 2 2 2 2 3 4 5 4 8 11 9 7 7 7 6 5 4 4 4 4 4 4 5 6 6 6 6 7 7 8 9 9 9 9 10 12 14 15 14 15 16
Wind_Direction
189 194 199 202 209 215 227 236 239 238 235 247 260 253 252 267 279 284 286 283 283 285 287 288 290 293 295 292 290 290 290 293 297 297 295 294 294 294 291 289 293 302 307 310 316 318 317 318 322 328 333 338 345 349 347 344 341 338 333 325 316 306 298 297 298 297 295 290 282 284 290 285 276 275 275 272 264 256 257 258 254 252 252 250 250
188 193 200 205 212 213 220 233 237 237 236 242 253 258 268 286 295 299 302 295 289 294 295 288 282 283 287 288 289 289 290 293 294 292 292 290 290 293 292 288 292 302 305 304 310 315 314 315 319 324 332 341 349 354 351 346 342 337 333 329 325 319 308 297 295 298 300 298 287 282 288 284 273 273 275 274 267 257 255 258 256 252 250 249 250
193 197 204 207 211 211 216 225 228 232 235 240 248 252 269 294 299 296 299 291 284 288 290 286 284 289 293 294 294 296 299 299 296 288 283 284 288 292 293 289 291 300 305 303 303 308 312 313 316 322 331 342 350 353 353 351 347 340 333 329 328 326 321 309 297 294 299 301 292 282 282 279 270 271 275 275 271 262 257 257 256 253 252 251 250
199 203 208 208 210 214 221 223 222 227 232 242 253 251 270 300 298 281 278 281 285 291 295 297 297 299 300 299 298 297 296 297 298 293 283 282 288 291 290 286 287 298 306 305 300 303 310 311 311 317 326 336 344 348 351 353 351 344 335 330 330 329 327 320 306 292 292 298 294 283 279 278 269 267 272 273 270 264 259 257 256 255 253 251 248
194 205 217 215 212 217 227 225 221 226 229 236 248 250 261 272 268 273 287 293 296 298 296 292 291 294 295 293 294 295 295 296 297 296 291 289 292 294 291 285 283 293 305 306 300 298 304 308 307 311 319 329 337 343 349 354 354 349 339 333 334 332 326 322 314 300 290 291 293 286 280 279 271 264 266 270 267 263 257 255 256 257 255 250 244
191 209 219 219 220 222 231 229 220 227 234 236 241 245 254 261 267 285 290 285 286 287 286 287 291 295 294 291 292 291 291 292 293 294 294 292 293 296 296 291 286 292 304 307 299 292 295 300 304 306 311 322 331 338 347 353 355 353 348 343 343 338 331 325 319 311 299 289 289 290 284 279 271 263 262 264 264 262 257 256 258 256 250 245 238
203 205 204 214 227 229 235 234 222 223 231 238 246 249 254 259 262 274 279 279 280 282 288 293 292 291 291 291 290 286 288 293 294 294 294 293 294 295 294 291 287 293 305 306 297 290 290 292 297 300 299 309 322 328 338 347 350 350 349 348 347 344 340 336 328 319 311 298 290 292 291 282 272 265 262 263 262 260 257 256 256 251 243 241 238
205 198 199 209 222 228 232 232 227 227 230 236 244 249 255 258 262 277 289 288 284 282 286 287 284 284 287 287 287 291 300 302 295 295 301 306 306 303 301 300 295 296 302 302 294 290 290 287 286 288 287 295 310 319 329 338 342 344 344 344 346 344 341 339 335 326 319 311 297 291 292 288 278 269 263 260 258 255 253 252 251 248 241 238 239
198 195 207 212 212 221 228 228 228 230 234 239 245 253 261 265 269 280 282 280 283 282 279 280 284 290 295 294 295 301 307 302 294 299 315 322 318 313 313 310 303 297 298 299 295 292 289 283 279 281 282 287 304 319 327 333 335 339 340 340 342 343 339 336 334 329 320 315 306 293 289 287 283 276 266 257 253 254 255 253 251 248 242 239 239
197 197 211 216 210 219 229 228 225 227 232 239 246 255 264 267 269 276 276 277 283 282 277 283 290 294 296 297 299 298 294 296 302 307 314 322 325 324 318 311 306 300 299 300 298 294 289 285 282 281 279 282 304 326 331 332 333 333 335 338 340 341 337 333 331 329 321 314 308 300 292 286 281 277 271 263 257 254 252 250 248 246 240 237 237
208 206 213 218 213 219 228 226 223 224 229 237 246 252 258 262 267 275 277 277 284 289 290 290 287 286 288 289 291 288 287 296 308 311 308 315 323 323 319 315 314 312 311 309 302 294 291 290 286 280 276 276 297 328 334 332 331 330 331 336 340 341 338 331 327 326 322 314 307 301 294 287 280 274 271 270 264 254 247 244 243 242 239 237 235
211 211 211 213 213 219 225 223 222 225 230 240 251 257 263 266 268 274 278 281 288 292 288 282 279 286 293 291 284 283 290 301 309 310 308 308 308 309 312 315 316 318 321 319 314 307 300 296 291 286 286 286 291 316 331 329 328 329 329 334 339 342 341 334 325 321 319 314 307 301 294 289 284 275 267 266 266 258 251 244 241 244 244 240 235
212 211 204 208 215 220 223 220 221 227 234 245 255 261 268 272 274 278 279 280 284 284 280 278 280 287 291 286 281 284 294 303 303 302 301 300 300 302 306 310 313 317 319 319 323 325 315 304 301 300 302 303 304 314 322 320 324 328 329 334 340 343 343 339 332 323 316 311 305 299 293 288 283 276 265 258 259 261 258 252 247 247 246 239 232
211 205 196 205 214 220 221 219 222 230 236 247 259 264 270 272 276 280 279 277 278 279 278 275 278 285 283 279 284 292 297 299 300 300 298 299 302 302 302 305 308 313 314 313 320 326 320 312 313 314 312 312 316 321 321 319 322 326 329 337 343 345 343 342 338 330 319 310 303 297 292 285 277 272 264 255 252 253 254 255 252 249 246 239 231
201 195 195 205 213 218 219 221 229 235 237 247 260 267 269 268 270 273 275 275 274 276 277 276 280 286 281 280 289 295 295 297 301 301 300 305 308 302 300 303 304 308 311 313 319 321 318 319 323 323 321 319 319 322 324 324 324 326 332 340 345 346 343 341 339 333 324 316 308 299 290 281 271 264 258 252 249 247 247 249 251 249 245 238 231
193 197 202 209 214 216 219 226 236 242 241 245 253 261 263 263 266 274 277 273 270 273 275 275 281 284 281 286 294 293 292 296 299 299 302 310 311 303 300 299 299 305 310 313 319 319 318 323 325 325 328 328 324 324 325 325 326 330 338 344 347 346 342 339 336 334 331 327 320 308 291 276 264 257 251 244 239 239 242 245 247 247 241 230 224
199 205 210 212 215 221 225 230 237 243 243 241 249 264 268 267 271 279 279 272 269 272 272 274 281 279 277 289 295 291 292 297 297 296 299 308 313 309 304 297 295 301 306 309 318 326 328 325 321 323 331 330 327 328 327 328 332 338 345 349 350 347 341 338 337 339 341 339 333 320 295 271 259 252 247 239 230 226 233 240 239 239 234 223 220
210 214 216 216 221 226 230 235 241 244 242 239 250 266 268 266 272 278 280 277 272 271 270 274 280 275 272 284 291 290 295 299 295 291 295 307 317 313 306 301 297 300 305 310 321 332 335 331 326 327 328 324 324 329 329 330 337 346 352 355 354 347 340 340 343 345 347 347 342 331 301 273 258 247 242 238 227 219 223 228 228 228 228 222 218
216 220 222 225 228 228 234 242 243 241 240 241 252 263 263 268 278 280 279 275 272 276 277 275 278 279 278 283 289 292 295 293 289 293 301 312 318 313 306 300 295 297 304 312 320 324 325 329 329 324 318 319 326 329 328 332 342 354 0 1 357 348 343 347 350 349 348 350 350 345 327 294 269 248 237 235 227 218 215 217 217 219 223 222 219
222 223 225 232 236 237 243 245 242 241 241 241 251 262 267 276 283 280 274 271 273 284 285 279 278 281 279 281 289 292 286 278 286 307 320 319 311 307 303 296 294 298 303 310 316 317 316 319 323 320 316 320 326 326 326 333 344 355 3 4 359 351 349 354 357 353 351 354 357 356 353 334 294 259 240 232 226 217 212 210 210 211 215 218 217
221 222 232 245 250 247 245 249 250 247 240 239 251 262 267 272 273 270 276 280 278 282 287 286 285 283 283 287 291 290 285 282 295 316 323 316 305 301 300 301 303 306 308 311 313 310 306 310 317 321 320 321 323 323 326 334 343 354 3 4 359 355 355 360 2 358 356 0 4 4 4 0 330 277 251 239 226 215 209 208 209 209 212 215 216
226 239 253 254 248 241 243 255 254 246 243 249 253 252 256 263 266 269 278 284 281 282 288 290 286 281 283 285 283 284 293 299 305 314 316 311 310 309 307 309 311 310 310 312 310 303 302 308 316 322 321 321 323 325 327 333 341 353 2 3 358 357 1 5 5 2 2 6 9 10 10 9 4 328 274 251 232 218 210 207 209 213 215 217 220
241 255 261 260 254 250 255 259 249 241 246 248 242 248 263 268 270 275 281 282 282 284 288 290 286 283 284 282 276 279 286 290 299 311 313 310 315 318 315 314 315 313 311 309 308 306 305 309 316 321 321 322 326 328 328 331 337 348 358 359 357 359 6 10 8 6 7 11 13 14 15 14 10 2 334 259 231 223 217 213 213 218 220 221 223
256 261 263 273 271 262 255 248 237 235 242 244 248 261 270 271 274 280 284 285 286 285 286 287 286 286 292 291 283 282 286 288 297 306 306 306 313 318 318 318 316 313 310 310 310 307 303 307 315 319 319 321 326 328 326 326 330 339 348 352 357 4 11 15 13 10 12 15 15 14 15 18 16 8 353 287 219 216 218 220 221 224 225 226 227
271 271 269 273 271 263 254 243 238 247 256 259 261 260 260 269 278 280 282 287 289 286 288 293 294 298 303 298 286 286 292 294 296 296 299 307 315 319 321 321 316 311 313 318 317 305 302 310 317 318 319 323 326 324 319 322 330 333 332 341 359 12 18 20 18 15 15 19 18 14 13 16 19 17 11 339 231 216 213 216 221 226 228 230 233
270 265 261 259 258 262 264 257 252 258 260 258 257 261 270 278 277 277 283 287 283 281 288 299 304 306 304 290 281 290 300 296 290 289 297 310 317 321 325 324 318 313 311 313 307 298 304 318 324 322 321 325 327 322 318 325 337 340 329 331 351 13 24 26 23 20 20 22 21 18 17 17 18 22 26 24 285 229 221 217 217 222 228 230 233
253 249 251 254 257 261 262 256 251 252 251 252 261 273 279 272 268 278 286 284 280 283 292 301 303 305 303 290 284 289 294 290 288 290 299 311 319 326 331 332 329 322 312 303 298 299 312 328 332 325 323 325 325 325 325 333 345 349 347 345 350 13 30 30 26 25 26 26 25 23 22 21 20 21 28 33 37 43 221 220 219 222 227 228 228
243 252 256 254 251 249 245 238 237 245 254 262 267 266 264 264 271 279 280 281 284 288 293 295 295 301 305 299 292 288 282 282 289 294 302 312 320 329 335 336 334 328 319 314 312 316 331 342 330 319 322 323 322 325 333 346 355 359 4 8 13 22 29 29 28 29 30 30 29 26 26 26 25 23 25 30 38 46 80 211 219 225 225 221 220
260 262 251 240 239 240 239 239 243 249 253 261 268 269 268 270 273 276 280 285 288 289 291 290 287 285 286 286 285 280 277 282 290 296 304 313 321 331 337 338 337 332 326 327 329 335 350 346 319 317 324 326 326 335 347 357 4 9 13 19 21 19 16 21 30 34 34 35 34 30 27 28 28 27 27 29 36 43 52 79 195 231 229 215 213
254 240 225 232 238 228 223 233 244 244 249 270 284 285 280 273 273 278 285 288 288 290 294 292 288 282 277 276 278 281 285 291 295 300 308 315 323 332 336 338 339 335 332 340 344 342 344 332 321 326 335 337 340 353 3 4 6 12 17 22 21 15 10 13 22 28 32 36 38 36 31 28 29 31 30 31 36 44 51 59 66 65 75 138 190
221 226 225 238 237 214 206 229 256 257 264 275 277 276 276 274 272 277 284 288 292 296 298 297 297 295 286 285 289 291 292 295 296 299 306 316 327 335 336 338 341 339 341 354 356 343 341 341 340 344 350 351 357 9 14 12 11 14 18 22 22 18 11 8 11 19 28 31 33 37 38 35 32 32 34 33 35 42 50 55 58 60 62 65 69
214 221 227 235 236 225 226 244 261 265 267 265 259 262 271 273 273 279 287 293 297 300 301 302 304 299 290 291 294 295 295 294 294 299 307 317 329 337 338 341 344 344 348 359 352 343 351 358 357 359 4 9 17 24 24 21 20 20 20 21 22 21 17 12 10 16 28 35 31 30 38 41 36 33 37 38 37 39 44 49 52 55 57 59 61
210 221 231 233 237 242 246 253 258 259 261 260 254 256 265 273 280 287 292 296 300 302 305 311 314 311 307 305 304 302 298 295 296 303 311 319 331 342 345 348 351 353 355 360 357 356 2 3 2 8 21 27 26 25 23 18 16 16 16 17 19 20 20 18 15 13 19 30 36 34 37 44 41 36 39 42 41 39 40 42 45 48 50 52 54
214 224 231 232 240 252 253 249 247 246 246 247 247 247 253 267 278 285 290 292 295 297 300 305 317 327 329 330 337 338 331 323 319 319 321 323 330 343 357 2 4 360 352 355 12 15 9 7 6 7 12 15 13 10 5 0 359 4 6 6 10 16 16 16 16 13 12 18 28 32 34 40 42 39 39 42 42 41 42 40 38 39 42 45 47
220 230 239 239 241 249 249 244 243 241 236 234 240 246 255 265 272 278 285 289 293 300 301 299 313 331 334 338 350 348 340 334 331 329 330 331 331 346 22 30 23 346 341 356 22 25 12 5 0 355 357 4 3 359 357 357 359 5 8 6 7 11 13 12 11 10 11 15 21 25 29 33 36 37 39 39 38 41 45 43 38 36 36 35 37
228 241 247 240 235 244 249 245 241 241 241 239 240 245 253 260 262 257 260 270 280 291 295 295 299 312 321 330 343 345 341 340 340 339 340 343 344 359 103 82 13 331 350 24 42 40 39 37 23 13 11 13 12 11 12 13 13 13 13 14 14 13 14 15 13 10 12 18 22 23 27 31 32 33 38 40 38 39 44 42 38 39 38 32 29
235 240 242 237 234 239 241 235 234 247 254 247 240 242 245 244 229 216 244 259 258 260 278 292 300 312 321 322 326 336 338 338 345 352 352 352 358 9 60 83 3 352 37 62 54 45 48 47 39 33 29 25 24 23 20 19 20 19 17 16 18 17 14 15 15 12 11 15 19 21 25 32 34 33 35 39 40 38 37 36 33 36 40 37 33
236 244 246 242 238 239 241 238 241 255 260 248 240 239 234 221 204 214 238 239 231 231 251 271 290 307 300 285 287 303 312 319 345 7 358 340 344 10 36 42 33 59 99 60 11 14 26 27 25 24 22 21 20 19 17 15 12 12 12 11 10 9 9 10 10 8 7 9 12 15 22 31 36 35 34 36 37 35 33 31 26 26 33 39 38
236 242 246 245 247 254 256 236 221 233 242 235 226 219 209 208 215 230 234 226 207 209 234 254 278 276 266 265 271 277 287 312 347 8 334 322 337 11 43 32 5 246 254 324 338 356 14 20 18 7 4 6 4 2 3 3 358 355 357 357 355 354 355 358 360 359 359 1 2 6 15 26 32 34 35 36 34 31 30 28 24 20 23 32 39
236 235 238 238 239 249 254 229 207 218 225 215 207 209 211 211 207 207 218 222 215 221 236 243 249 255 263 279 281 243 209 219 262 235 234 300 329 326 297 259 246 264 296 318 346 10 13 13 8 354 350 352 353 351 351 349 346 343 343 343 344 345 344 345 348 350 351 353 356 1 10 18 22 25 30 35 34 30 27 27 26 22 20 25 34
241 241 246 245 236 236 246 240 228 230 225 207 199 201 205 209 206 199 207 222 225 226 237 244 248 258 276 303 292 219 193 187 272 248 249 272 259 250 267 268 251 259 284 297 318 1 6 7 2 349 343 344 346 346 344 342 341 342 341 340 342 344 343 343 346 348 350 353 358 4 11 17 18 16 19 27 33 31 28 29 29 24 21 23 27
249 247 248 249 244 244 245 236 233 236 227 208 206 212 216 223 224 213 206 219 229 236 242 248 260 278 299 314 302 242 208 214 272 248 242 248 237 220 267 293 283 280 282 290 311 17 19 8 352 337 337 341 341 338 338 342 348 351 353 353 353 353 357 360 358 356 358 4 13 17 18 20 21 17 15 21 28 29 29 31 30 28 26 23 21
253 252 237 227 229 233 231 229 232 235 219 209 223 232 226 224 224 217 207 209 221 238 248 252 262 277 293 305 305 263 210 228 277 234 220 241 262 299 319 327 336 326 308 313 327 8 37 359 333 327 334 338 338 338 341 351 2 5 8 15 16 14 18 19 14 9 10 15 25 29 26 23 22 20 19 22 25 26 27 29 29 30 31 28 23
251 255 232 218 220 225 230 234 235 225 215 227 239 240 229 223 223 223 216 209 210 227 253 262 268 275 287 301 309 288 208 230 251 222 221 248 283 278 288 321 344 338 303 314 323 334 64 333 320 330 343 342 344 352 359 11 23 23 23 29 30 26 29 31 26 20 19 23 32 38 33 25 22 22 23 26 27 25 26 27 27 27 29 30 29
222 224 224 228 232 232 233 238 236 220 218 233 240 236 232 232 231 225 220 221 220 223 245 262 272 278 280 285 289 257 218 238 244 239 240 241 239 244 270 310 325 274 260 291 311 317 261 264 306 338 1 3 4 6 11 25 36 34 31 33 33 30 32 35 32 26 24 25 34 44 40 29 22 22 26 28 29 28 29 32 32 28 27 27 29
195 207 221 230 236 236 232 233 229 215 211 224 232 228 227 231 231 224 220 223 227 222 225 253 274 280 275 259 234 223 234 242 237 237 247 248 240 235 242 245 246 251 259 274 303 328 342 4 34 29 27 28 24 14 12 26 37 36 30 31 31 27 27 30 30 29 27 23 26 38 41 32 23 23 28 30 31 31 35 39 37 31 26 25 27
211 249 259 239 249 264 252 224 210 209 216 232 241 232 225 231 241 240 229 223 227 233 241 251 257 256 251 245 238 236 244 245 231 233 255 273 245 210 227 236 239 256 277 282 275 278 315 353 34 40 34 38 40 29 17 19 29 33 28 25 26 24 21 21 22 24 25 21 17 27 38 34 25 22 26 29 31 31 34 39 39 30 24 26 31
252 257 257 248 254 269 262 232 224 234 243 246 243 235 232 238 245 242 234 233 241 254 265 264 253 240 238 242 237 228 226 232 228 224 233 244 214 214 233 242 231 225 281 301 302 278 310 356 28 34 24 11 5 16 29 21 15 21 23 18 17 17 14 11 10 15 22 18 10 17 35 36 25 18 19 25 31 32 32 36 36 28 21 25 32
253 259 265 256 250 251 247 240 244 255 259 252 242 239 241 244 240 229 224 232 242 247 250 254 255 250 242 235 227 220 218 221 222 216 215 220 224 237 250 250 212 178 207 275 313 336 351 360 356 357 14 5 335 340 10 21 9 8 11 7 8 15 13 5 359 4 16 16 5 6 26 33 26 19 17 19 26 32 32 34 33 26 20 22 28
254 265 270 260 254 253 246 240 245 255 257 247 239 238 238 236 230 222 220 224 228 229 235 244 249 245 237 226 219 218 217 215 215 214 214 214 219 241 257 252 187 172 200 233 253 281 331 350 337 340 0 357 311 311 337 359 356 351 353 355 360 7 10 6 360 0 12 14 2 358 14 24 21 19 19 18 21 29 34 34 31 25 20 21 25
260 264 257 247 248 256 254 245 244 253 255 248 243 241 235 227 225 229 231 226 219 218 224 232 236 235 230 223 218 215 211 209 209 209 212 216 218 226 240 238 203 194 209 218 229 276 307 313 301 319 349 333 296 300 322 343 338 329 331 335 343 355 2 3 5 10 14 9 359 359 11 15 9 7 12 16 19 25 35 39 33 24 20 23 25